{"data":{"norad_id":62290,"epoch":"2026-05-25T01:53:59.809344Z","epoch_age_seconds":78585,"freshness":"FRESH","line1":"1 62290U 24238A   26145.07916446 -.00000052  00000+0  69563-4 0  9993","line2":"2 62290  59.9149 356.6045 0014587 216.5704 143.4309 13.75217404 72420","mean_motion":13.75217404,"eccentricity":0.0014587,"inclination_deg":59.9149,"raan_deg":356.6045,"arg_perigee_deg":216.5704,"mean_anomaly_deg":143.4309,"bstar":6.9563e-5,"rev_number":7242,"period_min":104.71071670643,"perigee_km":970.16449672169,"apogee_km":991.6337487061,"semimajor_km":7359.0361227139,"source":"CELESTRAK","updated_at":"2026-05-25T13:38:02.903641Z"}}